DECAYED

STARLINK-2284, 48016 (Decayed)

Orbit data source: Space-Track

STARLINK-2284, 48016 was a payload satellite owned by SpaceX/Seattle (US) in LEO that was launched on Wed, 24 Mar 2021 UTC via an FALCON 9 launch vehicle from the Air Force Eastern Test Range (AFETR). Payload-class satellites include a variety of spacecraft equipped with specific instruments for various scientific and technological missions. These include communications satellites like Starlink; space stations such as the ISS; scientific satellites like the Hubble; Earth observation satellites from companies like Planet Labs, Umbra, and HawkEye 360; GPS; miniature CubeSats for education and research; and military/defense satellites.

Not visible in the next 10 days
Identifier
48016, 2021-024AR
Orbit
Decayed
Country
Flag of USUS
Related business
Manufacturer
SpaceX/Seattle
Mission
Decayed Commercial Communications
Bus & Motor
STARLINK, Unknown motor
Mass
260 kg wet, ~248 kg dry
Launch date (UTC)
2021-03-24 (5 years ago)
Launch vehicle
FALCON 9
Launch site
Air Force Eastern Test Range (AFETR)
Object type
Payload
Rocket body
Debris
Shape & HBR
Box + 1 Pan, 10.1 m
Radar Cross Section
13.562 m², Large (>1 m²)

Expand to show TLE details & history
Last TLE update: 6 months ago

TLE from 6 months ago
0 STARLINK-2284
1 48016U 21024AR  25166.76014131  .18958046  12629-4  36711-3 0  9997
2 48016  53.0162 293.5624 0007882 305.8371 208.7782 16.46735785236053
Epoch: 2025-06-15T18:14Z
TLE epoch observation values (Epoch: 2025-06-15T18:14:36.209Z)
Latitude
20.10435°
Longitude
-80.27595°
Altitude
152.942 km
Speed
7.815 km/s
True Right ascension
06h 30m 37s
True Declination
19° 59' 00"
Sunlit
Object was in daylight at epoch
Visualization orbit readout
Latitude
Unknown
Longitude
Unknown
Altitude
Unknown
Speed
Unknown
Apparent Right ascension
Unknown
Apparent Declination
Unknown
Sunlit
N/A
Visualization observer readout
Local Sidereal Time
07:28:05
Azimuth
Unknown
Elevation
Unknown
Doppler factor
Unknown
Orbital elements
Apogee altitude
153.383 km
Perigee altitude
143.095 km
Semi-major axis
6,526.376 km
Eccentricity
0.00079
Inclination
53.0162°
RAAN
293.5624°
Arg. of periapsis
305.8371°
True anomaly
208.73476°
Mean anomaly
208.7782°
Eccentric anomaly
208.75647°
Mean motion
4.11657 °/min
Orbital period
87.45 mins
BSTAR
0.00036711
Loading maneuver chart data...
Computing Atmospheric mass density...

Documentation

Showing up to 5 results
|